Terminal Aerodrome Forecast
Issued by NWS Chicago, IL

Home | Current Version | Previous Version | Text Only | Print | Product List | Glossary On
Versions: 1 2 3 4 5 6 7 8 9 10 11 12 13 14 15 16 17 18 19 20 21 22 23 24 25 26 27 28 29 30 31 32 33 34 35 36 37 38 39 40 41 42 43 44 45 46 47 48 49 50
074
FTUS43 KLOT 172100 AAA
TAFRFD
TAF AMD
KRFD 172100Z 1721/1818 14009KT P6SM FEW030 BKN250
     FM180800 16004KT 6SM BR BKN250
     FM181500 17009KT P6SM BKN250=

USA.gov is the U.S. government's official web portal to all federal, state and local government web resources and services.